AIQ8006 VTCC-VTBD

Flight info

Callsign AIQ8006
Flight time 0h 52m
Altitude 31000
Route PANTA2S PANTA Y7 BLAFF NAKON3A
Aircraft A320/M-SDE3FGHIRWY/LB1

Departure

Time 2026-05-04 13:10
Airport Chiang Mai International Airport (VTCC)

Arrival

Time 2026-05-04 14:02
Airport Don Mueang International Airport (VTBD)
Time Latitude Longitude Altitude Speed Heading
2026-05-04 12:54 18.76712 98.96737 1032 ft 0 kts 90°
2026-05-04 13:01 18.76712 98.96730 1032 ft 4 kts 89°
2026-05-04 13:01 18.76711 98.96701 1032 ft 4 kts 83°
2026-05-04 13:02 18.76706 98.96673 1032 ft 4 kts 71°
2026-05-04 13:02 18.76694 98.96650 1032 ft 4 kts 28°
2026-05-04 13:02 18.76682 98.96646 1032 ft 1 kts
2026-05-04 13:02 18.76681 98.96646 1032 ft 0 kts
2026-05-04 13:04 18.76683 98.96646 1032 ft 2 kts
2026-05-04 13:04 18.76716 98.96635 1032 ft 7 kts 322°
2026-05-04 13:05 18.76734 98.96568 1032 ft 12 kts 274°
2026-05-04 13:05 18.76782 98.96517 1032 ft 12 kts
2026-05-04 13:05 18.76871 98.96518 1032 ft 14 kts 360°
2026-05-04 13:05 18.76971 98.96518 1032 ft 15 kts
2026-05-04 13:06 18.77082 98.96520 1032 ft 16 kts
2026-05-04 13:06 18.77189 98.96519 1032 ft 15 kts 360°
2026-05-04 13:06 18.77285 98.96519 1032 ft 13 kts 359°
2026-05-04 13:06 18.77372 98.96518 1032 ft 12 kts 360°
2026-05-04 13:07 18.77449 98.96518 1032 ft 10 kts 360°
2026-05-04 13:07 18.77516 98.96518 1032 ft 9 kts 360°
2026-05-04 13:07 18.77575 98.96518 1032 ft 9 kts 360°
2026-05-04 13:07 18.77657 98.96518 1032 ft 12 kts
2026-05-04 13:08 18.77734 98.96518 1032 ft 10 kts
2026-05-04 13:08 18.77834 98.96519 1032 ft 18 kts
2026-05-04 13:08 18.77958 98.96519 1032 ft 17 kts
2026-05-04 13:08 18.78070 98.96511 1032 ft 15 kts 329°
2026-05-04 13:09 18.78088 98.96409 1032 ft 15 kts 270°
2026-05-04 13:09 18.78088 98.96307 1032 ft 10 kts 257°
2026-05-04 13:09 18.78039 98.96292 1032 ft 6 kts 180°
2026-05-04 13:09 18.77949 98.96292 1032 ft 34 kts 180°
2026-05-04 13:10 18.77446 98.96306 1032 ft 107 kts 182°
2026-05-04 13:10 18.76506 98.96288 1032 ft 161 kts 181°
2026-05-04 13:10 18.75247 98.96270 1207 ft 188 kts 179°
2026-05-04 13:10 18.73954 98.96252 1919 ft 185 kts 181°
2026-05-04 13:11 18.72653 98.96234 2473 ft 191 kts 179°
2026-05-04 13:11 18.71263 98.96232 2739 ft 211 kts 177°
2026-05-04 13:11 18.69702 98.96242 2978 ft 236 kts 178°
2026-05-04 13:11 18.68006 98.96254 3347 ft 258 kts 178°
2026-05-04 13:12 18.66173 98.96260 4027 ft 266 kts 179°
2026-05-04 13:12 18.64308 98.96261 4815 ft 269 kts 179°
2026-05-04 13:12 18.62428 98.96256 5587 ft 272 kts 180°
2026-05-04 13:12 18.60521 98.96251 6368 ft 275 kts 181°
2026-05-04 13:13 18.58601 98.96247 7088 ft 278 kts 181°
2026-05-04 13:13 18.56642 98.96245 7793 ft 283 kts 181°
2026-05-04 13:13 18.54657 98.96241 8495 ft 288 kts 182°
2026-05-04 13:13 18.52642 98.96366 9202 ft 294 kts 171°
2026-05-04 13:14 18.50672 98.97016 9879 ft 301 kts 156°
2026-05-04 13:14 18.48872 98.98206 10369 ft 316 kts 142°
2026-05-04 13:14 18.47323 98.99966 10524 ft 341 kts 129°
2026-05-04 13:14 18.45823 99.01996 10775 ft 358 kts 129°
2026-05-04 13:15 18.44274 99.04086 11291 ft 365 kts 129°
2026-05-04 13:15 18.42694 99.06201 11898 ft 369 kts 129°
2026-05-04 13:15 18.41089 99.08335 12511 ft 374 kts 130°
2026-05-04 13:15 18.39485 99.10461 13124 ft 378 kts 130°
2026-05-04 13:16 18.37842 99.12634 13736 ft 382 kts 130°
2026-05-04 13:16 18.36181 99.14826 14277 ft 385 kts 130°
2026-05-04 13:16 18.34503 99.17037 14827 ft 388 kts 130°
2026-05-04 13:16 18.32816 99.19266 15367 ft 391 kts 130°
2026-05-04 13:17 18.31116 99.21515 15859 ft 394 kts 130°
2026-05-04 13:17 18.29407 99.23776 16396 ft 397 kts 130°
2026-05-04 13:17 18.27685 99.26057 16923 ft 399 kts 130°
2026-05-04 13:17 18.25928 99.28385 17451 ft 402 kts 130°
2026-05-04 13:18 18.24064 99.30524 17943 ft 403 kts 140°
2026-05-04 13:18 18.21794 99.32243 18398 ft 403 kts 153°
2026-05-04 13:18 18.19238 99.33431 18827 ft 402 kts 164°
2026-05-04 13:18 18.16560 99.34314 19260 ft 405 kts 165°
2026-05-04 13:19 18.13864 99.35208 19696 ft 408 kts 164°
2026-05-04 13:19 18.11151 99.36114 20125 ft 410 kts 164°
2026-05-04 13:19 18.08426 99.37030 20557 ft 413 kts 164°
2026-05-04 13:19 18.05676 99.37952 20993 ft 416 kts 164°
2026-05-04 13:20 18.02910 99.38878 21403 ft 419 kts 164°
2026-05-04 13:20 18.00124 99.39809 21811 ft 422 kts 164°
2026-05-04 13:20 17.97321 99.40745 22223 ft 424 kts 164°
2026-05-04 13:20 17.94496 99.41689 22632 ft 427 kts 164°
2026-05-04 13:21 17.91659 99.42639 23020 ft 429 kts 164°
2026-05-04 13:21 17.88804 99.43593 23405 ft 432 kts 164°
2026-05-04 13:21 17.85930 99.44551 23724 ft 434 kts 164°
2026-05-04 13:21 17.83042 99.45513 24032 ft 436 kts 164°
2026-05-04 13:22 17.80143 99.46477 24334 ft 438 kts 164°
2026-05-04 13:22 17.77231 99.47446 24630 ft 440 kts 164°
2026-05-04 13:22 17.74305 99.48421 24929 ft 443 kts 164°
2026-05-04 13:22 17.71362 99.49403 25208 ft 445 kts 164°
2026-05-04 13:23 17.68401 99.50391 25512 ft 447 kts 164°
2026-05-04 13:23 17.65432 99.51383 25788 ft 449 kts 164°
2026-05-04 13:23 17.62454 99.52377 26068 ft 450 kts 164°
2026-05-04 13:23 17.59457 99.53372 26338 ft 452 kts 164°
2026-05-04 13:24 17.56491 99.54354 26603 ft 454 kts 164°
2026-05-04 13:24 17.53471 99.55352 26864 ft 456 kts 164°
2026-05-04 13:24 17.50443 99.56355 27124 ft 458 kts 164°
2026-05-04 13:25 17.44339 99.58383 27616 ft 462 kts 164°
2026-05-04 13:25 17.41275 99.59403 27864 ft 463 kts 164°
2026-05-04 13:25 17.38194 99.60428 28105 ft 465 kts 164°
2026-05-04 13:25 17.35103 99.61455 28329 ft 467 kts 164°
2026-05-04 13:26 17.31999 99.62485 28565 ft 469 kts 164°
2026-05-04 13:26 17.28887 99.63513 28787 ft 470 kts 164°
2026-05-04 13:26 17.25760 99.64547 29009 ft 472 kts 164°
2026-05-04 13:26 17.22632 99.65584 29219 ft 473 kts 164°
2026-05-04 13:27 17.19490 99.66627 29417 ft 475 kts 164°
2026-05-04 13:27 17.16337 99.67672 29664 ft 475 kts 164°
2026-05-04 13:27 17.13183 99.68712 29874 ft 476 kts 164°
2026-05-04 13:27 17.11084 99.69402 29998 ft 477 kts 164°
2026-05-04 13:28 17.06838 99.70800 30210 ft 479 kts 164°
2026-05-04 13:28 17.03659 99.71850 30373 ft 480 kts 164°
2026-05-04 13:28 17.00477 99.72905 30572 ft 480 kts 164°
2026-05-04 13:28 16.97295 99.73960 30772 ft 479 kts 164°
2026-05-04 13:29 16.91018 99.76038 30843 ft 466 kts 165°
2026-05-04 13:29 16.85898 99.77726 30843 ft 463 kts 165°
2026-05-04 13:30 16.78756 99.80077 30847 ft 463 kts 165°
2026-05-04 13:30 16.72613 99.82101 30847 ft 463 kts 165°
2026-05-04 13:31 16.66479 99.84122 30844 ft 463 kts 165°
2026-05-04 13:31 16.60335 99.86143 30840 ft 462 kts 165°
2026-05-04 13:32 16.55199 99.87829 30834 ft 462 kts 165°
2026-05-04 13:32 16.49061 99.89847 30842 ft 463 kts 165°
2026-05-04 13:33 16.42957 99.91852 30844 ft 463 kts 165°
2026-05-04 13:33 16.36815 99.93871 30845 ft 463 kts 165°
2026-05-04 13:34 16.30673 99.95883 30847 ft 462 kts 165°
2026-05-04 13:34 16.24541 99.97909 30844 ft 462 kts 165°
2026-05-04 13:35 16.15346 100.00949 30848 ft 462 kts 165°
2026-05-04 13:36 16.09209 100.02972 30849 ft 463 kts 165°
2026-05-04 13:36 16.03069 100.05000 30848 ft 463 kts 165°
2026-05-04 13:37 15.96936 100.07017 30846 ft 463 kts 165°
2026-05-04 13:37 15.90971 100.08975 30843 ft 463 kts 165°
2026-05-04 13:38 15.84828 100.10990 30849 ft 463 kts 165°
2026-05-04 13:38 15.78683 100.13008 30848 ft 463 kts 165°
2026-05-04 13:39 15.72540 100.15032 30856 ft 463 kts 165°
2026-05-04 13:39 15.66389 100.17053 30657 ft 463 kts 165°
2026-05-04 13:39 15.63373 100.18041 30028 ft 462 kts 165°
2026-05-04 13:40 15.60311 100.19044 29339 ft 459 kts 165°
2026-05-04 13:40 15.57276 100.20041 28735 ft 455 kts 165°
2026-05-04 13:40 15.54269 100.21030 28119 ft 451 kts 165°
2026-05-04 13:40 15.51285 100.22013 27515 ft 448 kts 165°
2026-05-04 13:41 15.48321 100.22984 26918 ft 445 kts 165°
2026-05-04 13:41 15.45377 100.23943 26329 ft 442 kts 164°
2026-05-04 13:41 15.42454 100.24896 25748 ft 439 kts 164°
2026-05-04 13:42 15.36657 100.26787 24623 ft 434 kts 164°
2026-05-04 13:42 15.33793 100.27725 24075 ft 431 kts 164°
2026-05-04 13:42 15.30944 100.28658 23559 ft 428 kts 163°
2026-05-04 13:42 15.28113 100.29586 22984 ft 425 kts 163°
2026-05-04 13:43 15.25325 100.30542 22484 ft 420 kts 162°
2026-05-04 13:43 15.22589 100.31564 21988 ft 416 kts 161°
2026-05-04 13:43 15.19890 100.32625 21500 ft 413 kts 160°
2026-05-04 13:43 15.17219 100.33695 21010 ft 410 kts 160°
2026-05-04 13:44 15.14566 100.34756 20505 ft 408 kts 160°
2026-05-04 13:44 15.11919 100.35804 20007 ft 406 kts 160°
2026-05-04 13:44 15.09293 100.36830 19491 ft 404 kts 160°
2026-05-04 13:44 15.06655 100.37849 18977 ft 403 kts 160°
2026-05-04 13:45 15.04059 100.38842 18449 ft 403 kts 161°
2026-05-04 13:45 15.01433 100.39842 17880 ft 402 kts 160°
2026-05-04 13:45 14.98811 100.40842 17348 ft 400 kts 160°
2026-05-04 13:45 14.96213 100.41838 16828 ft 397 kts 160°
2026-05-04 13:46 14.93645 100.42826 16499 ft 384 kts 160°
2026-05-04 13:46 14.91250 100.43745 16355 ft 352 kts 160°
2026-05-04 13:46 14.89000 100.44609 15726 ft 343 kts 160°
2026-05-04 13:46 14.86712 100.45488 14908 ft 357 kts 160°
2026-05-04 13:47 14.84385 100.46384 14445 ft 357 kts 159°
2026-05-04 13:47 14.82059 100.47280 13985 ft 357 kts 159°
2026-05-04 13:47 14.79729 100.48176 13477 ft 357 kts 159°
2026-05-04 13:47 14.77405 100.49067 13040 ft 354 kts 159°
2026-05-04 13:48 14.75134 100.49935 12910 ft 342 kts 159°
2026-05-04 13:48 14.72938 100.50774 12779 ft 330 kts 159°
2026-05-04 13:48 14.70821 100.51586 12659 ft 320 kts 159°
2026-05-04 13:48 14.68740 100.52313 12446 ft 313 kts 162°
2026-05-04 13:49 14.66764 100.52911 12051 ft 313 kts 164°
2026-05-04 13:49 14.64677 100.53492 11769 ft 309 kts 165°
2026-05-04 13:49 14.62603 100.54052 11404 ft 308 kts 165°
2026-05-04 13:49 14.60535 100.54612 11057 ft 306 kts 165°
2026-05-04 13:50 14.58489 100.55174 10645 ft 302 kts 165°
2026-05-04 13:50 14.56465 100.55737 10078 ft 299 kts 165°
2026-05-04 13:50 14.54479 100.56297 9644 ft 295 kts 164°
2026-05-04 13:50 14.52537 100.56851 9246 ft 293 kts 164°
2026-05-04 13:51 14.50577 100.57414 8856 ft 292 kts 164°
2026-05-04 13:51 14.48633 100.57973 8512 ft 289 kts 164°
2026-05-04 13:51 14.46700 100.58527 8160 ft 287 kts 164°
2026-05-04 13:51 14.44794 100.59071 7900 ft 281 kts 164°
2026-05-04 13:52 14.41262 100.60078 7372 ft 252 kts 164°
2026-05-04 13:52 14.39603 100.60553 7179 ft 246 kts 164°
2026-05-04 13:52 14.37950 100.61025 7071 ft 247 kts 164°
2026-05-04 13:53 14.36367 100.61476 6966 ft 246 kts 164°
2026-05-04 13:53 14.34716 100.61947 6849 ft 246 kts 164°
2026-05-04 13:53 14.33066 100.62419 6739 ft 246 kts 164°
2026-05-04 13:54 14.29784 100.63356 6373 ft 244 kts 163°
2026-05-04 13:54 14.28152 100.63820 6164 ft 243 kts 164°
2026-05-04 13:54 14.25107 100.64682 5789 ft 242 kts 164°
2026-05-04 13:55 14.23485 100.65142 5597 ft 241 kts 164°
2026-05-04 13:55 14.20297 100.66054 5197 ft 239 kts 163°
2026-05-04 13:55 14.18707 100.66510 5006 ft 239 kts 163°
2026-05-04 13:56 14.17087 100.66973 4585 ft 242 kts 163°
2026-05-04 13:56 14.15477 100.67431 4292 ft 239 kts 164°
2026-05-04 13:56 14.14958 100.67579 4171 ft 239 kts 164°
2026-05-04 13:57 14.14122 100.67811 3915 ft 241 kts 164°
2026-05-04 13:58 14.09453 100.69139 3235 ft 225 kts 164°
2026-05-04 13:58 14.06505 100.69323 2966 ft 208 kts 195°
2026-05-04 13:58 14.05244 100.68739 2753 ft 205 kts 207°
2026-05-04 13:59 14.04007 100.68042 2503 ft 200 kts 207°
2026-05-04 13:59 14.02799 100.67362 2232 ft 195 kts 207°
2026-05-04 13:59 14.00595 100.66123 1798 ft 164 kts 207°
2026-05-04 14:00 13.99643 100.65588 1588 ft 150 kts 206°
2026-05-04 14:00 13.97864 100.64591 1215 ft 143 kts 207°
2026-05-04 14:00 13.96990 100.64100 1022 ft 144 kts 207°
2026-05-04 14:01 13.96114 100.63609 836 ft 143 kts 207°
2026-05-04 14:01 13.95243 100.63120 667 ft 142 kts 207°
2026-05-04 14:01 13.93688 100.62242 315 ft 143 kts 207°
2026-05-04 14:02 13.92818 100.61754 139 ft 142 kts 206°
2026-05-04 14:02 13.91973 100.61287 23 ft 132 kts 208°
2026-05-04 14:02 13.91287 100.60900 17 ft 87 kts 208°
2026-05-04 14:02 13.90905 100.60686 19 ft 43 kts 208°
2026-05-04 14:03 13.90689 100.60565 20 ft 30 kts 205°
2026-05-04 14:03 13.90497 100.60513 19 ft 23 kts 179°
2026-05-04 14:03 13.90411 100.60520 18 ft 12 kts 175°
2026-05-04 14:03 13.90328 100.60519 18 ft 12 kts 183°
2026-05-04 14:04 13.90161 100.60457 17 ft 13 kts 208°
2026-05-04 14:04 13.90077 100.60411 19 ft 14 kts 212°
2026-05-04 14:04 13.90059 100.60363 17 ft 0 kts 270°
2026-05-04 14:05 13.90087 100.60285 17 ft 9 kts 300°
2026-05-04 14:05 13.90131 100.60205 19 ft 15 kts 300°
2026-05-04 14:05 13.90180 100.60116 17 ft 13 kts 299°
2026-05-04 14:06 13.90223 100.60037 19 ft 12 kts 299°
2026-05-04 14:06 13.90261 100.59969 20 ft 10 kts 299°
2026-05-04 14:06 13.90293 100.59910 17 ft 10 kts 299°
2026-05-04 14:06 13.90331 100.59834 18 ft 13 kts 297°
2026-05-04 14:07 13.90388 100.59795 17 ft 10 kts
2026-05-04 14:07 13.90447 100.59824 17 ft 10 kts 28°
2026-05-04 14:07 13.90522 100.59867 19 ft 13 kts 29°
2026-05-04 14:07 13.90600 100.59911 17 ft 12 kts 28°
2026-05-04 14:08 13.90672 100.59951 17 ft 12 kts 28°
2026-05-04 14:08 13.90761 100.60001 20 ft 17 kts 27°
2026-05-04 14:08 13.90880 100.60069 17 ft 22 kts 28°
2026-05-04 14:08 13.91006 100.60122 17 ft 17 kts 353°
2026-05-04 14:09 13.91007 100.60035 17 ft 6 kts 233°
2026-05-04 14:09 13.90997 100.59997 17 ft 5 kts 285°
2026-05-04 14:10 13.91032 100.59976 17 ft 2 kts 24°
2026-05-04 14:10 13.91046 100.59983 17 ft 3 kts 28°
2026-05-04 14:10 13.91068 100.59996 17 ft 4 kts 29°
2026-05-04 14:10 13.91080 100.60003 17 ft 0 kts 28°